• In Belarus
  • List of Countries
  • For 7 days
  • Water Temperature
  • Satellite Maps
  • Weather Map
  • Weather Widgets
  • user-avatar
    Login

    Hourly Weather As-Savira

    Today, 17 October, Wednesday

    Time Temperature Precipitation Wind Pressure Humidity
    00:00 +29°C° 0 mm 4 mps 732 mmHg 33%
    01:00 +28°C° 0 mm 4 mps 732 mmHg 34%
    02:00 +28°C° 0 mm 5 mps 732 mmHg 34%
    03:00 +28°C° 0 mm 5 mps 731 mmHg 34%
    04:00 +28°C° 0 mm 5 mps 731 mmHg 34%
    05:00 +28°C° 0 mm 5 mps 731 mmHg 34%
    06:00 +27°C° 0 mm 6 mps 731 mmHg 34%
    07:00 +27°C° 0 mm 6 mps 731 mmHg 34%
    08:00 +29°C° 0 mm 7 mps 731 mmHg 28%
    09:00 +32°C° 0 mm 8 mps 731 mmHg 23%
    10:00 +34°C° 0 mm 9 mps 731 mmHg 18%
    11:00 +35°C° 0 mm 9 mps 730 mmHg 16%
    12:00 +37°C° 0 mm 9 mps 730 mmHg 13%
    13:00 +39°C° 0 mm 10 mps 729 mmHg 11%
    14:00 +38°C° 0 mm 10 mps 729 mmHg 11%
    15:00 +38°C° 0 mm 9 mps 728 mmHg 10%
    16:00 +38°C° 0 mm 9 mps 728 mmHg 10%
    17:00 +37°C° 0 mm 8 mps 728 mmHg 13%
    18:00 +34°C° 0 mm 7 mps 728 mmHg 16%
    19:00 +33°C° 0 mm 6 mps 729 mmHg 18%
    20:00 +30°C° 0 mm 6 mps 729 mmHg 27%
    21:00 +29°C° 0 mm 6 mps 729 mmHg 36%
    22:00 +28°C° 0 mm 7 mps 730 mmHg 45%
    23:00 +27°C° 0 mm 6 mps 730 mmHg 47%

    Tomorrow, 18 October, Thursday

    Time Temperature Precipitation Wind Pressure Humidity
    00:00 +26°C° 0 mm 5 mps 730 mmHg 50%
    01:00 +25°C° 0 mm 4 mps 730 mmHg 53%
    02:00 +25°C° 0 mm 4 mps 730 mmHg 53%
    03:00 +24°C° 0 mm 3 mps 729 mmHg 54%
    04:00 +24°C° 0 mm 2 mps 729 mmHg 54%
    05:00 +24°C° 0 mm 2 mps 729 mmHg 54%
    06:00 +24°C° 0 mm 3 mps 729 mmHg 54%
    07:00 +24°C° 0 mm 3 mps 729 mmHg 55%
    08:00 +25°C° 0 mm 3 mps 730 mmHg 50%
    09:00 +26°C° 0 mm 4 mps 730 mmHg 46%
    10:00 +27°C° 0 mm 4 mps 730 mmHg 41%
    11:00 +28°C° 0 mm 5 mps 730 mmHg 38%
    12:00 +29°C° 0 mm 6 mps 730 mmHg 35%
    13:00 +30°C° 0 mm 7 mps 729 mmHg 32%
    14:00 +30°C° 0 mm 7 mps 729 mmHg 31%
    15:00 +30°C° 0 mm 6 mps 729 mmHg 30%
    16:00 +30°C° 0 mm 6 mps 729 mmHg 29%
    17:00 +29°C° 0 mm 5 mps 729 mmHg 30%
    18:00 +29°C° 0 mm 4 mps 729 mmHg 31%
    19:00 +28°C° 0 mm 3 mps 730 mmHg 32%
    20:00 +27°C° 0 mm 3 mps 730 mmHg 33%
    21:00 +27°C° 0 mm 3 mps 731 mmHg 34%
    22:00 +26°C° 0 mm 2 mps 731 mmHg 35%
    23:00 +26°C° 0 mm 2 mps 731 mmHg 37%

    Day after tomorrow, 19 October, Friday

    Time Temperature Precipitation Wind Pressure Humidity
    00:00 +25°C° 0 mm 2 mps 731 mmHg 38%
    01:00 +25°C° 0 mm 1 mps 731 mmHg 39%
    02:00 +24°C° 0 mm 1 mps 731 mmHg 40%
    03:00 +24°C° 0 mm 1 mps 731 mmHg 42%
    04:00 +21°C° 0 mm 0 mps 731 mmHg 43%
    05:00 +21°C° 0 mm 0 mps 731 mmHg 44%
    06:00 +21°C° 0 mm 0 mps 732 mmHg 44%
    07:00 +21°C° 0 mm 0 mps 732 mmHg 44%
    08:00 +24°C° 0 mm 1 mps 733 mmHg 41%
    09:00 +25°C° 0 mm 1 mps 733 mmHg 37%
    10:00 +27°C° 0 mm 1 mps 734 mmHg 33%
    11:00 +28°C° 0 mm 1 mps 734 mmHg 31%
    12:00 +28°C° 0 mm 1 mps 734 mmHg 29%
    13:00 +29°C° 0 mm 1 mps 734 mmHg 27%
    14:00 +29°C° 0 mm 1 mps 734 mmHg 26%
    15:00 +30°C° 0 mm 1 mps 734 mmHg 25%
    16:00 +30°C° 0 mm 1 mps 734 mmHg 24%
    17:00 +30°C° 0 mm 1 mps 734 mmHg 25%
    18:00 +29°C° 0 mm 2 mps 734 mmHg 27%
    19:00 +28°C° 0 mm 2 mps 734 mmHg 28%
    20:00 +28°C° 0 mm 2 mps 735 mmHg 29%
    21:00 +27°C° 0 mm 2 mps 735 mmHg 31%
    22:00 +27°C° 0 mm 3 mps 736 mmHg 32%
    23:00 +26°C° 0 mm 3 mps 736 mmHg 34%

    20 October, Saturday

    Time Temperature Precipitation Wind Pressure Humidity
    00:00 +26°C° 0 mm 3 mps 735 mmHg 36%
    01:00 +25°C° 0 mm 4 mps 735 mmHg 38%
    02:00 +25°C° 0 mm 4 mps 735 mmHg 40%
    03:00 +25°C° 0 mm 4 mps 735 mmHg 41%
    04:00 +23°C° 0 mm 4 mps 735 mmHg 43%
    05:00 +23°C° 0 mm 4 mps 736 mmHg 44%
    06:00 +23°C° 0 mm 4 mps 736 mmHg 45%
    07:00 +22°C° 0 mm 4 mps 736 mmHg 46%
    08:00 +25°C° 0 mm 4 mps 736 mmHg 42%
    09:00 +26°C° 0 mm 5 mps 737 mmHg 39%
    10:00 +28°C° 0 mm 5 mps 737 mmHg 35%
    11:00 +29°C° 0 mm 5 mps 737 mmHg 32%
    12:00 +30°C° 0 mm 5 mps 737 mmHg 28%
    13:00 +33°C° 0 mm 4 mps 736 mmHg 25%
    14:00 +33°C° 0 mm 4 mps 736 mmHg 24%
    15:00 +33°C° 0 mm 4 mps 736 mmHg 23%
    16:00 +34°C° 0 mm 4 mps 736 mmHg 22%
    17:00 +33°C° 0 mm 4 mps 736 mmHg 23%
    18:00 +32°C° 0 mm 4 mps 736 mmHg 25%
    19:00 +30°C° 0 mm 5 mps 736 mmHg 27%
    20:00 +29°C° 0 mm 5 mps 736 mmHg 30%
    21:00 +29°C° 0 mm 6 mps 737 mmHg 32%
    22:00 +28°C° 0 mm 6 mps 737 mmHg 35%
    23:00 +27°C° 0 mm 6 mps 737 mmHg 39%

    21 October, Sunday

    Time Temperature Precipitation Wind Pressure Humidity
    00:00 +27°C° 0 mm 5 mps 736 mmHg 42%
    01:00 +26°C° 0 mm 5 mps 736 mmHg 46%
    02:00 +26°C° 0 mm 5 mps 736 mmHg 47%
    03:00 +25°C° 0 mm 4 mps 736 mmHg 48%
    04:00 +25°C° 0 mm 4 mps 736 mmHg 49%
    05:00 +25°C° 0 mm 4 mps 736 mmHg 48%
    06:00 +25°C° 0 mm 4 mps 736 mmHg 47%
    07:00 +25°C° 0 mm 4 mps 736 mmHg 46%
    08:00 +26°C° 0 mm 4 mps 736 mmHg 43%
    09:00 +27°C° 0 mm 5 mps 737 mmHg 40%
    10:00 +28°C° 0 mm 5 mps 737 mmHg 38%
    11:00 +30°C° 0 mm 4 mps 737 mmHg 34%
    12:00 +31°C° 0 mm 3 mps 736 mmHg 30%
    13:00 +33°C° 0 mm 3 mps 736 mmHg 27%
    14:00 +32°C° 0 mm 2 mps 736 mmHg 26%
    15:00 +34°C° 0 mm 2 mps 736 mmHg 25%
    16:00 +34°C° 0 mm 2 mps 735 mmHg 24%
    17:00 +32°C° 0 mm 2 mps 735 mmHg 26%
    18:00 +31°C° 0 mm 2 mps 736 mmHg 28%
    19:00 +30°C° 0 mm 2 mps 736 mmHg 31%
    20:00 +30°C° 0 mm 2 mps 736 mmHg 33%
    21:00 +29°C° 0 mm 3 mps 736 mmHg 35%
    22:00 +28°C° 0 mm 3 mps 736 mmHg 38%
    23:00 +28°C° 0 mm 3 mps 736 mmHg 41%

    22 October, Monday

    Time Temperature Precipitation Wind Pressure Humidity
    00:00 +27°C° 0 mm 3 mps 736 mmHg 44%
    01:00 +26°C° 0 mm 4 mps 736 mmHg 48%
    02:00 +26°C° 0 mm 3 mps 735 mmHg 51%
    03:00 +25°C° 0 mm 3 mps 735 mmHg 53%
    04:00 +25°C° 0 mm 3 mps 735 mmHg 56%
    05:00 +25°C° 0 mm 3 mps 735 mmHg 58%
    06:00 +24°C° 0 mm 3 mps 735 mmHg 60%
    07:00 +24°C° 0 mm 3 mps 736 mmHg 62%
    08:00 +25°C° 0 mm 3 mps 736 mmHg 57%
    09:00 +26°C° 0 mm 3 mps 736 mmHg 53%
    10:00 +28°C° 0 mm 3 mps 736 mmHg 48%
    11:00 +29°C° 0 mm 3 mps 736 mmHg 44%
    12:00 +30°C° 0 mm 3 mps 736 mmHg 40%
    13:00 +32°C° 0 mm 4 mps 735 mmHg 36%
    14:00 +32°C° 0 mm 4 mps 735 mmHg 35%
    15:00 +32°C° 0 mm 4 mps 735 mmHg 33%
    16:00 +32°C° 0 mm 4 mps 734 mmHg 32%
    17:00 +32°C° 0 mm 5 mps 735 mmHg 34%
    18:00 +30°C° 0 mm 5 mps 735 mmHg 36%
    19:00 +29°C° 0 mm 6 mps 735 mmHg 39%
    20:00 +28°C° 0 mm 6 mps 736 mmHg 41%
    21:00 +28°C° 0 mm 5 mps 736 mmHg 44%
    22:00 +27°C° 0 mm 5 mps 736 mmHg 47%
    23:00 +26°C° 0 mm 5 mps 736 mmHg 51%
    Show more